When you browse on this site, cookies collect data to enhance your experience and personalize the content and advertising you see.
Visit our Privacy Policy to learn more. By continuing to use the site, you agree to this use of cookies and data.
  • In Romania
  • List of Countries
  • For 7 days
  • Water Temperature
  • Satellite Maps
  • Weather Map
  • Weather Widgets
  • user-avatar
    Login

    Hourly Weather Novopole

    Today, 25 March, Monday

    Time Temperature Precipitation Wind Pressure Humidity
    00:00 -2°C° 0.6 mm 5 mps 746 mmHg 95%
    01:00 -3°C° 0.4 mm 6 mps 745 mmHg 93%
    02:00 -4°C° 0.4 mm 7 mps 745 mmHg 92%
    03:00 -5°C° 0.4 mm 8 mps 745 mmHg 90%
    04:00 -6°C° 0.1 mm 8 mps 745 mmHg 90%
    05:00 -6°C° 0.1 mm 7 mps 745 mmHg 91%
    06:00 -7°C° 0.1 mm 7 mps 744 mmHg 91%
    07:00 -6°C° 0 mm 7 mps 745 mmHg 91%
    08:00 -4°C° 0 mm 7 mps 745 mmHg 90%
    09:00 -3°C° 0 mm 6 mps 745 mmHg 90%
    10:00 -3°C° 0 mm 6 mps 746 mmHg 92%
    11:00 -2°C° 0 mm 6 mps 746 mmHg 95%
    12:00 -2°C° 0 mm 6 mps 746 mmHg 98%
    13:00 -2°C° 0 mm 6 mps 747 mmHg 96%
    14:00 -2°C° 0 mm 6 mps 747 mmHg 94%
    15:00 -2°C° 0 mm 6 mps 748 mmHg 93%
    16:00 -2°C° 0 mm 6 mps 748 mmHg 91%
    17:00 -1°C° 0 mm 5 mps 749 mmHg 89%
    18:00 -2°C° 0 mm 5 mps 749 mmHg 87%
    19:00 -2°C° 0 mm 5 mps 750 mmHg 87%
    20:00 -2°C° 0 mm 4 mps 751 mmHg 87%
    21:00 -2°C° 0 mm 4 mps 752 mmHg 88%
    22:00 -3°C° 0 mm 4 mps 752 mmHg 89%
    23:00 -5°C° 0 mm 4 mps 752 mmHg 91%

    Tomorrow, 26 March, Tuesday

    Time Temperature Precipitation Wind Pressure Humidity
    00:00 -6°C° 0 mm 3 mps 753 mmHg 92%
    01:00 -7°C° 0 mm 3 mps 753 mmHg 91%
    02:00 -7°C° 0 mm 3 mps 754 mmHg 91%
    03:00 -7°C° 0 mm 3 mps 754 mmHg 90%
    04:00 -6°C° 0 mm 2 mps 754 mmHg 89%
    05:00 -6°C° 0 mm 2 mps 754 mmHg 88%
    06:00 -4°C° 0 mm 1 mps 754 mmHg 87%
    07:00 -5°C° 0 mm 2 mps 754 mmHg 86%
    08:00 -3°C° 0 mm 2 mps 754 mmHg 86%
    09:00 -2°C° 0 mm 3 mps 754 mmHg 86%
    10:00 -1°C° 0 mm 3 mps 754 mmHg 90%
    11:00 -2°C° 0 mm 4 mps 754 mmHg 95%
    12:00 -1°C° 0 mm 4 mps 753 mmHg 99%
    13:00 -1°C° 0.2 mm 4 mps 753 mmHg 99%
    14:00 -1°C° 0.2 mm 5 mps 752 mmHg 99%
    15:00 0°C° 0.2 mm 5 mps 751 mmHg 99%
    16:00 0°C° 0.2 mm 5 mps 751 mmHg 99%
    17:00 0°C° 0.2 mm 4 mps 751 mmHg 99%
    18:00 0°C° 0.2 mm 4 mps 750 mmHg 99%
    19:00 0°C° 1.1 mm 4 mps 750 mmHg 99%
    20:00 +1°C° 1.1 mm 4 mps 750 mmHg 99%
    21:00 +1°C° 1.1 mm 5 mps 750 mmHg 99%
    22:00 +1°C° 1 mm 5 mps 750 mmHg 99%
    23:00 +1°C° 1 mm 5 mps 749 mmHg 99%

    Day after tomorrow, 27 March, Wednesday

    Time Temperature Precipitation Wind Pressure Humidity
    00:00 +1°C° 1 mm 5 mps 749 mmHg 99%
    01:00 +1°C° 0.7 mm 5 mps 749 mmHg 99%
    02:00 +1°C° 0.7 mm 5 mps 749 mmHg 98%
    03:00 +1°C° 0.7 mm 5 mps 749 mmHg 98%
    04:00 0°C° 0.3 mm 4 mps 749 mmHg 98%
    05:00 0°C° 0.3 mm 4 mps 749 mmHg 98%
    06:00 +1°C° 0.3 mm 3 mps 749 mmHg 98%
    07:00 +1°C° 0.2 mm 3 mps 750 mmHg 99%
    08:00 +1°C° 0.2 mm 3 mps 750 mmHg 99%
    09:00 +1°C° 0.2 mm 3 mps 751 mmHg 99%
    10:00 0°C° 0 mm 3 mps 751 mmHg 99%
    11:00 0°C° 0 mm 3 mps 752 mmHg 99%
    12:00 0°C° 0 mm 3 mps 752 mmHg 99%
    13:00 +1°C° 0 mm 2 mps 752 mmHg 99%
    14:00 +1°C° 0 mm 2 mps 753 mmHg 99%
    15:00 +1°C° 0 mm 2 mps 753 mmHg 99%
    16:00 +1°C° 0 mm 2 mps 753 mmHg 97%
    17:00 -1°C° 0 mm 2 mps 753 mmHg 96%
    18:00 -1°C° 0 mm 2 mps 754 mmHg 95%
    19:00 -2°C° 0 mm 2 mps 754 mmHg 95%
    20:00 -1°C° 0 mm 1 mps 755 mmHg 94%
    21:00 -1°C° 0 mm 1 mps 755 mmHg 94%
    22:00 -2°C° 0 mm 1 mps 755 mmHg 93%
    23:00 -2°C° 0 mm 1 mps 755 mmHg 93%

    28 March, Thursday

    Time Temperature Precipitation Wind Pressure Humidity
    00:00 -5°C° 0 mm 2 mps 754 mmHg 92%
    01:00 -5°C° 0 mm 2 mps 754 mmHg 91%
    02:00 -5°C° 0 mm 2 mps 754 mmHg 90%
    03:00 -5°C° 0 mm 2 mps 754 mmHg 89%
    04:00 -5°C° 0 mm 2 mps 754 mmHg 87%
    05:00 -6°C° 0 mm 3 mps 754 mmHg 86%
    06:00 -5°C° 0 mm 3 mps 754 mmHg 85%
    07:00 -5°C° 0 mm 3 mps 754 mmHg 84%
    08:00 -4°C° 0 mm 3 mps 755 mmHg 83%
    09:00 -4°C° 0 mm 4 mps 755 mmHg 82%
    10:00 -3°C° 0 mm 4 mps 755 mmHg 83%
    11:00 -3°C° 0 mm 4 mps 755 mmHg 84%
    12:00 -2°C° 0 mm 4 mps 755 mmHg 84%
    13:00 -2°C° 0 mm 5 mps 756 mmHg 86%
    14:00 -1°C° 0 mm 5 mps 756 mmHg 88%
    15:00 -1°C° 0 mm 5 mps 756 mmHg 89%
    16:00 -1°C° 0 mm 5 mps 756 mmHg 89%
    17:00 -1°C° 0 mm 5 mps 756 mmHg 89%
    18:00 -1°C° 0 mm 5 mps 756 mmHg 89%
    19:00 -1°C° 0 mm 5 mps 757 mmHg 89%
    20:00 -2°C° 0 mm 5 mps 757 mmHg 89%
    21:00 -2°C° 0 mm 5 mps 758 mmHg 89%
    22:00 -4°C° 0 mm 5 mps 758 mmHg 89%
    23:00 -4°C° 0 mm 5 mps 758 mmHg 90%

    29 March, Friday

    Time Temperature Precipitation Wind Pressure Humidity
    00:00 -5°C° 0 mm 5 mps 758 mmHg 90%
    01:00 -4°C° 0 mm 4 mps 758 mmHg 91%
    02:00 -5°C° 0 mm 4 mps 759 mmHg 91%
    03:00 -5°C° 0 mm 4 mps 759 mmHg 92%
    04:00 -7°C° 0 mm 4 mps 759 mmHg 92%
    05:00 -7°C° 0 mm 4 mps 759 mmHg 92%
    06:00 -7°C° 0 mm 4 mps 759 mmHg 92%
    07:00 -5°C° 0 mm 4 mps 759 mmHg 89%
    08:00 -5°C° 0 mm 4 mps 759 mmHg 87%
    09:00 -6°C° 0 mm 5 mps 759 mmHg 84%
    10:00 -5°C° 0 mm 5 mps 759 mmHg 83%
    11:00 -4°C° 0 mm 5 mps 759 mmHg 82%
    12:00 -2°C° 0 mm 5 mps 758 mmHg 81%
    13:00 -3°C° 0 mm 6 mps 758 mmHg 81%
    14:00 -2°C° 0 mm 6 mps 757 mmHg 80%
    15:00 -2°C° 0 mm 6 mps 756 mmHg 80%
    16:00 -2°C° 0.2 mm 6 mps 756 mmHg 82%
    17:00 -2°C° 0.2 mm 6 mps 755 mmHg 84%
    18:00 -2°C° 0.2 mm 6 mps 754 mmHg 86%
    19:00 -2°C° 0.7 mm 6 mps 754 mmHg 88%
    20:00 -2°C° 0.7 mm 6 mps 753 mmHg 89%
    21:00 -1°C° 0.7 mm 6 mps 753 mmHg 90%
    22:00 -1°C° 0.1 mm 6 mps 752 mmHg 90%
    23:00 0°C° 0.1 mm 5 mps 752 mmHg 90%

    30 March, Saturday

    Time Temperature Precipitation Wind Pressure Humidity
    00:00 -1°C° 0.1 mm 5 mps 752 mmHg 90%
    01:00 -1°C° 0 mm 5 mps 752 mmHg 90%
    02:00 -2°C° 0 mm 5 mps 752 mmHg 91%
    03:00 -4°C° 0 mm 5 mps 753 mmHg 91%
    04:00 -4°C° 0 mm 5 mps 753 mmHg 91%
    05:00 -4°C° 0 mm 4 mps 754 mmHg 91%
    06:00 -4°C° 0 mm 4 mps 754 mmHg 91%
    07:00 -3°C° 0 mm 4 mps 755 mmHg 91%
    08:00 -3°C° 0 mm 4 mps 755 mmHg 92%
    09:00 -2°C° 0 mm 4 mps 756 mmHg 92%
    10:00 0°C° 0 mm 3 mps 756 mmHg 93%
    11:00 0°C° 0 mm 3 mps 756 mmHg 95%
    12:00 0°C° 0 mm 3 mps 757 mmHg 96%
    13:00 0°C° 0 mm 3 mps 757 mmHg 96%
    14:00 +1°C° 0 mm 2 mps 757 mmHg 95%
    15:00 +1°C° 0 mm 2 mps 757 mmHg 95%
    16:00 +1°C° 0 mm 2 mps 757 mmHg 94%
    17:00 +2°C° 0 mm 1 mps 757 mmHg 92%
    18:00 +2°C° 0 mm 1 mps 757 mmHg 91%
    19:00 +1°C° 0 mm 1 mps 758 mmHg 91%
    20:00 0°C° 0 mm 1 mps 758 mmHg 92%
    21:00 0°C° 0 mm 1 mps 758 mmHg 92%
    22:00 -1°C° 0 mm 1 mps 758 mmHg 92%
    23:00 -1°C° 0 mm 1 mps 758 mmHg 93%
    Show more